Year,Month,Day,Hour,Minute,Value (Times are PST for temperature in C)
2015,04,25,00,00,2.60
2015,04,25,00,01,2.50
2015,04,25,00,02,2.50
2015,04,25,00,03,2.50
2015,04,25,00,04,2.50
2015,04,25,00,05,2.50
2015,04,25,00,06,2.50
2015,04,25,00,07,2.40
2015,04,25,00,08,2.40
2015,04,25,00,09,2.40
2015,04,25,00,10,2.40
2015,04,25,00,11,2.40
2015,04,25,00,12,2.40
2015,04,25,00,13,2.40
2015,04,25,00,14,2.40
2015,04,25,00,15,2.40
2015,04,25,00,16,2.40
2015,04,25,00,17,2.40
2015,04,25,00,18,2.40
2015,04,25,00,19,2.40
2015,04,25,00,20,2.40
2015,04,25,00,21,2.30
2015,04,25,00,22,2.30
2015,04,25,00,23,2.30
2015,04,25,00,24,2.30
2015,04,25,00,25,2.30
2015,04,25,00,26,2.30
2015,04,25,00,27,2.30
2015,04,25,00,28,2.30
2015,04,25,00,29,2.20
2015,04,25,00,30,2.20
2015,04,25,00,31,2.20
2015,04,25,00,32,2.20
2015,04,25,00,33,2.20
2015,04,25,00,34,2.20
2015,04,25,00,35,2.20
2015,04,25,00,36,2.20
2015,04,25,00,37,2.20
2015,04,25,00,38,2.20
2015,04,25,00,39,2.20
2015,04,25,00,40,2.20
2015,04,25,00,41,2.20
2015,04,25,00,42,2.20
2015,04,25,00,43,2.20
2015,04,25,00,44,2.20
2015,04,25,00,45,2.20
2015,04,25,00,46,2.20
2015,04,25,00,47,2.20
2015,04,25,00,48,2.20
2015,04,25,00,49,2.20
2015,04,25,00,50,2.20
2015,04,25,00,51,2.20
2015,04,25,00,52,2.20
2015,04,25,00,53,2.20
2015,04,25,00,54,2.20
2015,04,25,00,55,2.20
2015,04,25,00,56,2.20
2015,04,25,00,57,2.20
2015,04,25,00,58,2.20
2015,04,25,00,59,2.20
2015,04,25,01,00,2.20
2015,04,25,01,01,2.20
2015,04,25,01,02,2.20
2015,04,25,01,03,2.20
2015,04,25,01,04,2.20
2015,04,25,01,05,2.20
2015,04,25,01,06,2.20
2015,04,25,01,07,2.20
2015,04,25,01,08,2.20
2015,04,25,01,09,2.20
2015,04,25,01,10,2.20
2015,04,25,01,11,2.20
2015,04,25,01,12,2.20
2015,04,25,01,13,2.20
2015,04,25,01,14,2.20
2015,04,25,01,15,2.20
2015,04,25,01,16,2.30
2015,04,25,01,17,2.20
2015,04,25,01,18,2.20
2015,04,25,01,19,2.20
2015,04,25,01,20,2.20
2015,04,25,01,21,2.20
2015,04,25,01,22,2.20
2015,04,25,01,23,2.20
2015,04,25,01,24,2.20
2015,04,25,01,25,2.20
2015,04,25,01,26,2.20
2015,04,25,01,27,2.20
2015,04,25,01,28,2.20
2015,04,25,01,29,2.20
2015,04,25,01,30,2.20
2015,04,25,01,31,2.20
2015,04,25,01,32,2.20
2015,04,25,01,33,2.20
2015,04,25,01,34,2.20
2015,04,25,01,35,2.20
2015,04,25,01,36,2.20
2015,04,25,01,37,2.20
2015,04,25,01,38,2.20
2015,04,25,01,39,2.20
2015,04,25,01,40,2.20
2015,04,25,01,41,2.20
2015,04,25,01,42,2.20
2015,04,25,01,43,2.20
2015,04,25,01,44,2.20
2015,04,25,01,45,2.20
2015,04,25,01,46,2.20
2015,04,25,01,47,2.30
2015,04,25,01,48,2.30
2015,04,25,01,49,2.30
2015,04,25,01,50,2.30
2015,04,25,01,51,2.30
2015,04,25,01,52,2.30
2015,04,25,01,53,2.30
2015,04,25,01,54,2.30
2015,04,25,01,55,2.30
2015,04,25,01,56,2.40
2015,04,25,01,57,2.40
2015,04,25,01,58,2.40
2015,04,25,01,59,2.40
2015,04,25,02,00,2.40
2015,04,25,02,01,2.40
2015,04,25,02,02,2.40
2015,04,25,02,03,2.40
2015,04,25,02,04,2.40
2015,04,25,02,05,2.40
2015,04,25,02,06,2.40
2015,04,25,02,07,2.40
2015,04,25,02,08,2.40
2015,04,25,02,09,2.40
2015,04,25,02,10,2.40
2015,04,25,02,11,2.40
2015,04,25,02,12,2.40
2015,04,25,02,13,2.40
2015,04,25,02,14,2.40
2015,04,25,02,15,2.40
2015,04,25,02,16,2.40
2015,04,25,02,17,2.40
2015,04,25,02,18,2.40
2015,04,25,02,19,2.40
2015,04,25,02,20,2.40
2015,04,25,02,21,2.40
2015,04,25,02,22,2.40
2015,04,25,02,23,2.40
2015,04,25,02,24,2.40
2015,04,25,02,25,2.40
2015,04,25,02,26,2.40
2015,04,25,02,27,2.50
2015,04,25,02,28,2.50
2015,04,25,02,29,2.50
2015,04,25,02,30,2.50
2015,04,25,02,31,2.50
2015,04,25,02,32,2.50
2015,04,25,02,33,2.60
2015,04,25,02,34,2.60
2015,04,25,02,35,2.60
2015,04,25,02,36,2.60
2015,04,25,02,37,2.60
2015,04,25,02,38,2.60
2015,04,25,02,39,2.60
2015,04,25,02,40,2.60
2015,04,25,02,41,2.60
2015,04,25,02,42,2.60
2015,04,25,02,43,2.60
2015,04,25,02,44,2.60
2015,04,25,02,45,2.60
2015,04,25,02,46,2.60
2015,04,25,02,47,2.60
2015,04,25,02,48,2.60
2015,04,25,02,49,2.60
2015,04,25,02,50,2.60
2015,04,25,02,51,2.60
2015,04,25,02,52,2.60
2015,04,25,02,53,2.70
2015,04,25,02,54,2.70
2015,04,25,02,55,2.70
2015,04,25,02,56,2.70
2015,04,25,02,57,2.70
2015,04,25,02,58,2.70
2015,04,25,02,59,2.70
2015,04,25,03,00,2.70
2015,04,25,03,01,2.70
2015,04,25,03,02,2.70
2015,04,25,03,03,2.70
2015,04,25,03,04,2.70
2015,04,25,03,05,2.70
2015,04,25,03,06,2.70
2015,04,25,03,07,2.70
2015,04,25,03,08,2.70
2015,04,25,03,09,2.70
2015,04,25,03,10,2.70
2015,04,25,03,11,2.70
2015,04,25,03,12,2.70
2015,04,25,03,13,2.70
2015,04,25,03,14,2.80
2015,04,25,03,15,2.80
2015,04,25,03,16,2.80
2015,04,25,03,17,2.80
2015,04,25,03,18,2.80
2015,04,25,03,19,2.80
2015,04,25,03,20,2.80
2015,04,25,03,21,2.80
2015,04,25,03,22,2.80
2015,04,25,03,23,2.90
2015,04,25,03,24,2.90
2015,04,25,03,25,2.90
2015,04,25,03,26,2.90
2015,04,25,03,27,2.90
2015,04,25,03,28,2.90
2015,04,25,03,29,2.90
2015,04,25,03,30,2.90
2015,04,25,03,31,3.00
2015,04,25,03,32,3.00
2015,04,25,03,33,3.00
2015,04,25,03,34,3.00
2015,04,25,03,35,3.10
2015,04,25,03,36,3.10
2015,04,25,03,37,3.10
2015,04,25,03,38,3.10
2015,04,25,03,39,3.10
2015,04,25,03,40,3.10
2015,04,25,03,41,3.20
2015,04,25,03,42,3.20
2015,04,25,03,43,3.20
2015,04,25,03,44,3.20
2015,04,25,03,49,3.30
2015,04,25,03,50,3.30
2015,04,25,03,51,3.30
2015,04,25,03,52,3.30
2015,04,25,03,53,3.30
2015,04,25,03,54,3.30
2015,04,25,03,55,3.30
2015,04,25,03,56,3.30
2015,04,25,03,57,3.30
2015,04,25,03,58,3.40
2015,04,25,03,59,3.30
2015,04,25,04,00,3.40
2015,04,25,04,01,3.40
2015,04,25,04,02,3.40
2015,04,25,04,03,3.40
2015,04,25,04,04,3.40
2015,04,25,04,05,3.40
2015,04,25,04,06,3.40
2015,04,25,04,07,3.40
2015,04,25,04,08,3.40
2015,04,25,04,09,3.40
2015,04,25,04,10,3.40
2015,04,25,04,11,3.40
2015,04,25,04,12,3.40
2015,04,25,04,13,3.40
2015,04,25,04,14,3.40
2015,04,25,04,15,3.50
2015,04,25,04,16,3.50
2015,04,25,04,17,3.50
2015,04,25,04,18,3.50
2015,04,25,04,19,3.50
2015,04,25,04,20,3.50
2015,04,25,04,21,3.50
2015,04,25,04,22,3.50
2015,04,25,04,23,3.50
2015,04,25,04,24,3.50
2015,04,25,04,25,3.60
2015,04,25,04,26,3.60
2015,04,25,04,27,3.60
2015,04,25,04,28,3.60
2015,04,25,04,29,3.60
2015,04,25,04,30,3.60
2015,04,25,04,31,3.60
2015,04,25,04,32,3.60
2015,04,25,04,33,3.60
2015,04,25,04,34,3.60
2015,04,25,04,35,3.60
2015,04,25,04,36,3.60
2015,04,25,04,37,3.60
2015,04,25,04,38,3.60
2015,04,25,04,39,3.60
2015,04,25,04,40,3.60
2015,04,25,04,41,3.60
2015,04,25,04,42,3.50
2015,04,25,04,43,3.50
2015,04,25,04,44,3.60
2015,04,25,04,45,3.60
2015,04,25,04,46,3.60
2015,04,25,04,47,3.60
2015,04,25,04,48,3.60
2015,04,25,04,49,3.60
2015,04,25,04,50,3.60
2015,04,25,04,51,3.60
2015,04,25,04,52,3.60
2015,04,25,04,53,3.60
2015,04,25,04,54,3.60
2015,04,25,04,55,3.60
2015,04,25,04,56,3.60
2015,04,25,04,57,3.60
2015,04,25,04,58,3.60
2015,04,25,04,59,3.60
2015,04,25,05,00,3.60
2015,04,25,05,01,3.60
2015,04,25,05,02,3.60
2015,04,25,05,03,3.60
2015,04,25,05,04,3.60
2015,04,25,05,05,3.60
2015,04,25,05,06,3.60
2015,04,25,05,07,3.60
2015,04,25,05,08,3.60
2015,04,25,05,09,3.60
2015,04,25,05,10,3.70
2015,04,25,05,11,3.70
2015,04,25,05,12,3.70
2015,04,25,05,13,3.70
2015,04,25,05,14,3.70
2015,04,25,05,15,3.70
2015,04,25,05,16,3.70
2015,04,25,05,17,3.70
2015,04,25,05,18,3.80
2015,04,25,05,19,3.80
2015,04,25,05,20,3.80
2015,04,25,05,21,3.80
2015,04,25,05,22,3.80
2015,04,25,05,23,3.80
2015,04,25,05,24,3.80
2015,04,25,05,25,3.90
2015,04,25,05,26,3.90
2015,04,25,05,27,3.90
2015,04,25,05,28,3.90
2015,04,25,05,29,3.90
2015,04,25,05,30,3.90
2015,04,25,05,31,3.90
2015,04,25,05,32,3.90
2015,04,25,05,33,3.90
2015,04,25,05,34,4.00
2015,04,25,05,35,4.00
2015,04,25,05,36,4.00
2015,04,25,05,37,4.00
2015,04,25,05,38,4.00
2015,04,25,05,39,4.00
2015,04,25,05,40,4.00
2015,04,25,05,41,4.00
2015,04,25,05,42,4.10
2015,04,25,05,43,4.10
2015,04,25,05,44,4.10
2015,04,25,05,45,4.10
2015,04,25,05,46,4.10
2015,04,25,05,47,4.10
2015,04,25,05,48,4.10
2015,04,25,05,49,4.10
2015,04,25,05,50,4.10
2015,04,25,05,51,4.10
2015,04,25,05,52,4.10
2015,04,25,05,53,4.10
2015,04,25,05,54,4.10
2015,04,25,05,55,4.10
2015,04,25,05,56,4.10
2015,04,25,05,57,4.10
2015,04,25,05,58,4.10
2015,04,25,05,59,4.10
2015,04,25,06,00,4.10
2015,04,25,06,01,4.10
2015,04,25,06,02,4.10
2015,04,25,06,03,4.10
2015,04,25,06,04,4.10
2015,04,25,06,05,4.10
2015,04,25,06,06,4.10
2015,04,25,06,07,4.10
2015,04,25,06,08,4.10
2015,04,25,06,09,4.10
2015,04,25,06,10,4.10
2015,04,25,06,11,4.10
2015,04,25,06,12,4.10
2015,04,25,06,13,4.10
2015,04,25,06,14,4.10
2015,04,25,06,15,4.10
2015,04,25,06,16,4.10
2015,04,25,06,17,4.10
2015,04,25,06,18,4.10
2015,04,25,06,19,4.10
2015,04,25,06,20,4.10
2015,04,25,06,21,4.10
2015,04,25,06,22,4.10
2015,04,25,06,23,4.10
2015,04,25,06,24,4.10
2015,04,25,06,25,4.20
2015,04,25,06,26,4.20
2015,04,25,06,27,4.20
2015,04,25,06,28,4.20
2015,04,25,06,29,4.20
2015,04,25,06,30,4.20
2015,04,25,06,31,4.20
2015,04,25,06,32,4.20
2015,04,25,06,33,4.20
2015,04,25,06,34,4.20
2015,04,25,06,35,4.20
2015,04,25,06,36,4.20
2015,04,25,06,37,4.20
2015,04,25,06,38,4.20
2015,04,25,06,39,4.20
2015,04,25,06,40,4.20
2015,04,25,06,41,4.30
2015,04,25,06,42,4.30
2015,04,25,06,43,4.30
2015,04,25,06,44,4.30
2015,04,25,06,45,4.30
2015,04,25,06,46,4.30
2015,04,25,06,47,4.30
2015,04,25,06,48,4.30
2015,04,25,06,49,4.30
2015,04,25,06,50,4.30
2015,04,25,06,51,4.30
2015,04,25,06,52,4.30
2015,04,25,06,53,4.30
2015,04,25,06,54,4.30
2015,04,25,06,55,4.30
2015,04,25,06,56,4.30
2015,04,25,06,57,4.30
2015,04,25,06,58,4.40
2015,04,25,06,59,4.40
2015,04,25,07,00,4.40
2015,04,25,07,01,4.40
2015,04,25,07,02,4.40
2015,04,25,07,03,4.40
2015,04,25,07,04,4.40
2015,04,25,07,05,4.40
2015,04,25,07,06,4.40
2015,04,25,07,07,4.40
2015,04,25,07,08,4.40
2015,04,25,07,09,4.40
2015,04,25,07,10,4.50
2015,04,25,07,11,4.50
2015,04,25,07,12,4.50
2015,04,25,07,13,4.50
2015,04,25,07,14,4.50
2015,04,25,07,15,4.60
2015,04,25,07,16,4.60
2015,04,25,07,17,4.60
2015,04,25,07,18,4.60
2015,04,25,07,19,4.60
2015,04,25,07,20,4.60
2015,04,25,07,21,4.60
2015,04,25,07,22,4.60
2015,04,25,07,23,4.60
2015,04,25,07,24,4.60
2015,04,25,07,25,4.60
2015,04,25,07,26,4.60
2015,04,25,07,27,4.60
2015,04,25,07,28,4.60
2015,04,25,07,29,4.60
2015,04,25,07,30,4.70
2015,04,25,07,31,4.70
2015,04,25,07,32,4.70
2015,04,25,07,33,4.70
2015,04,25,07,34,4.70
2015,04,25,07,35,4.70
2015,04,25,07,36,4.70
2015,04,25,07,37,4.70
2015,04,25,07,38,4.70
2015,04,25,07,39,4.70
2015,04,25,07,40,4.70
2015,04,25,07,41,4.70
2015,04,25,07,42,4.70
2015,04,25,07,43,4.70
2015,04,25,07,44,4.70
2015,04,25,07,45,4.80
2015,04,25,07,46,4.80
2015,04,25,07,47,4.80
2015,04,25,07,48,4.80
2015,04,25,07,49,4.80
2015,04,25,07,50,4.80
2015,04,25,07,51,4.80
2015,04,25,07,52,4.80
2015,04,25,07,53,4.80
2015,04,25,07,54,4.80
2015,04,25,07,55,4.80
2015,04,25,07,56,4.90
2015,04,25,07,57,4.90
2015,04,25,07,58,4.90
2015,04,25,07,59,4.90
2015,04,25,08,00,4.90
2015,04,25,08,01,4.90
2015,04,25,08,02,4.90
2015,04,25,08,03,5.00
2015,04,25,08,04,5.00
2015,04,25,08,05,5.00
2015,04,25,08,06,5.10
2015,04,25,08,07,5.10
2015,04,25,08,08,5.10
2015,04,25,08,09,5.10
2015,04,25,08,10,5.10
2015,04,25,08,11,5.10
2015,04,25,08,12,5.10
2015,04,25,08,13,5.20
2015,04,25,08,14,5.20
2015,04,25,08,15,5.20
2015,04,25,08,16,5.20
2015,04,25,08,17,5.20
2015,04,25,08,18,5.20
2015,04,25,08,19,5.20
2015,04,25,08,20,5.20
2015,04,25,08,21,5.30
2015,04,25,08,22,5.30
2015,04,25,08,23,5.30
2015,04,25,08,24,5.30
2015,04,25,08,25,5.30
2015,04,25,08,26,5.30
2015,04,25,08,27,5.30
2015,04,25,08,28,5.30
2015,04,25,08,29,5.40
2015,04,25,08,30,5.40
2015,04,25,08,31,5.40
2015,04,25,08,32,5.40
2015,04,25,08,33,5.40
2015,04,25,08,34,5.40
2015,04,25,08,35,5.40
2015,04,25,08,36,5.40
2015,04,25,08,37,5.40
2015,04,25,08,38,5.50
2015,04,25,08,39,5.50
2015,04,25,08,40,5.60
2015,04,25,08,41,5.60
2015,04,25,08,42,5.60
2015,04,25,08,43,5.70
2015,04,25,08,44,5.70
2015,04,25,08,45,5.70
2015,04,25,08,46,5.70
2015,04,25,08,47,5.70
2015,04,25,08,48,5.80
2015,04,25,08,49,5.80
2015,04,25,08,50,5.80
2015,04,25,08,51,5.80
2015,04,25,08,52,5.90
2015,04,25,08,53,5.90
2015,04,25,08,54,5.90
2015,04,25,08,55,5.90
2015,04,25,08,56,6.00
2015,04,25,08,57,6.00
2015,04,25,08,58,6.10
2015,04,25,08,59,6.10
2015,04,25,09,00,6.10
2015,04,25,09,01,6.10
2015,04,25,09,02,6.10
2015,04,25,09,03,6.10
2015,04,25,09,04,6.20
2015,04,25,09,05,6.20
2015,04,25,09,06,6.20
2015,04,25,09,07,6.20
2015,04,25,09,08,6.20
2015,04,25,09,09,6.30
2015,04,25,09,10,6.30
2015,04,25,09,11,6.30
2015,04,25,09,12,6.30
2015,04,25,09,13,6.30
2015,04,25,09,14,6.30
2015,04,25,09,15,6.30
2015,04,25,09,16,6.30
2015,04,25,09,17,6.30
2015,04,25,09,18,6.40
2015,04,25,09,19,6.40
2015,04,25,09,20,6.50
2015,04,25,09,21,6.50
2015,04,25,09,22,6.60
2015,04,25,09,23,6.60
2015,04,25,09,24,6.70
2015,04,25,09,25,6.70
2015,04,25,09,26,6.70
2015,04,25,09,27,6.70
2015,04,25,09,28,6.80
2015,04,25,09,29,6.80
2015,04,25,09,30,6.80
2015,04,25,09,31,6.80
2015,04,25,09,32,6.70
2015,04,25,09,33,6.70
2015,04,25,09,34,6.70
2015,04,25,09,35,6.70
2015,04,25,09,36,6.70
2015,04,25,09,37,6.70
2015,04,25,09,38,6.60
2015,04,25,09,39,6.60
2015,04,25,09,40,6.60
2015,04,25,09,41,6.60
2015,04,25,09,42,6.70
2015,04,25,09,43,6.70
2015,04,25,09,44,6.70
2015,04,25,09,45,6.80
2015,04,25,09,46,6.80
2015,04,25,09,47,6.80
2015,04,25,09,48,6.80
2015,04,25,09,49,6.70
2015,04,25,09,50,6.70
2015,04,25,09,51,6.70
2015,04,25,09,52,6.70
2015,04,25,09,53,6.80
2015,04,25,09,54,6.80
2015,04,25,09,55,6.90
2015,04,25,09,56,7.00
2015,04,25,09,57,7.00
2015,04,25,09,58,7.10
2015,04,25,09,59,7.10
2015,04,25,10,00,7.20
2015,04,25,10,01,7.20
2015,04,25,10,02,7.20
2015,04,25,10,03,7.30
2015,04,25,10,04,7.40
2015,04,25,10,05,7.50
2015,04,25,10,06,7.60
2015,04,25,10,07,7.70
2015,04,25,10,08,7.80
2015,04,25,10,09,7.80
2015,04,25,10,10,7.90
2015,04,25,10,11,7.90
2015,04,25,10,12,8.00
2015,04,25,10,13,8.10
2015,04,25,10,14,8.10
2015,04,25,10,15,8.10
2015,04,25,10,16,8.10
2015,04,25,10,17,8.00
2015,04,25,10,18,8.00
2015,04,25,10,19,8.00
2015,04,25,10,20,8.00
2015,04,25,10,21,7.90
2015,04,25,10,22,7.90
2015,04,25,10,23,7.90
2015,04,25,10,24,8.00
2015,04,25,10,25,8.00
2015,04,25,10,26,8.10
2015,04,25,10,27,8.10
2015,04,25,10,28,8.10
2015,04,25,10,29,8.20
2015,04,25,10,30,8.20
2015,04,25,10,31,8.20
2015,04,25,10,32,8.20
2015,04,25,10,33,8.20
2015,04,25,10,34,8.20
2015,04,25,10,35,8.20
2015,04,25,10,36,8.20
2015,04,25,10,37,8.20
2015,04,25,10,38,8.30
2015,04,25,10,39,8.30
2015,04,25,10,40,8.40
2015,04,25,10,41,8.50
2015,04,25,10,42,8.60
2015,04,25,10,43,8.70
2015,04,25,10,44,8.80
2015,04,25,10,45,8.90
2015,04,25,10,46,9.00
2015,04,25,10,47,9.10
2015,04,25,10,48,9.20
2015,04,25,10,49,9.40
2015,04,25,10,50,9.50
2015,04,25,10,51,9.60
2015,04,25,10,52,9.70
2015,04,25,10,53,9.70
2015,04,25,10,54,9.70
2015,04,25,10,55,9.60
2015,04,25,10,56,9.50
2015,04,25,10,57,9.50
2015,04,25,10,58,9.40
2015,04,25,10,59,9.40
2015,04,25,11,00,9.40
2015,04,25,11,01,9.30
2015,04,25,11,02,9.30
2015,04,25,11,03,9.30
2015,04,25,11,04,9.20
2015,04,25,11,05,9.20
2015,04,25,11,06,9.20
2015,04,25,11,07,9.20
2015,04,25,11,08,9.20
2015,04,25,11,09,9.30
2015,04,25,11,10,9.30
2015,04,25,11,11,9.30
2015,04,25,11,12,9.30
2015,04,25,11,13,9.30
2015,04,25,11,14,9.30
2015,04,25,11,15,9.30
2015,04,25,11,16,9.30
2015,04,25,11,17,9.30
2015,04,25,11,18,9.30
2015,04,25,11,19,9.40
2015,04,25,11,20,9.40
2015,04,25,11,21,9.40
2015,04,25,11,22,9.40
2015,04,25,11,23,9.50
2015,04,25,11,24,9.50
2015,04,25,11,25,9.60
2015,04,25,11,26,9.60
2015,04,25,11,27,9.60
2015,04,25,11,28,9.60
2015,04,25,11,29,9.70
2015,04,25,11,30,9.70
2015,04,25,11,31,9.70
2015,04,25,11,32,9.70
2015,04,25,11,33,9.70
2015,04,25,11,34,9.80
2015,04,25,11,35,9.80
2015,04,25,11,36,9.80
2015,04,25,11,37,9.90
2015,04,25,11,38,9.90
2015,04,25,11,39,9.90
2015,04,25,11,40,9.90
2015,04,25,11,41,9.90
2015,04,25,11,42,9.80
2015,04,25,11,43,9.80
2015,04,25,11,44,9.80
2015,04,25,11,45,9.80
2015,04,25,11,46,9.80
2015,04,25,11,47,9.80
2015,04,25,11,48,9.80
2015,04,25,11,49,9.80
2015,04,25,11,50,9.90
2015,04,25,11,51,9.90
2015,04,25,11,52,9.90
2015,04,25,11,53,9.90
2015,04,25,11,54,9.90
2015,04,25,11,55,10.00
2015,04,25,11,56,10.00
2015,04,25,11,57,10.10
2015,04,25,11,58,10.10
2015,04,25,11,59,10.10
2015,04,25,12,00,10.10
2015,04,25,12,01,10.10
2015,04,25,12,02,10.00
2015,04,25,12,03,9.90
2015,04,25,12,04,9.90
2015,04,25,12,05,9.80
2015,04,25,12,06,9.80
2015,04,25,12,07,9.80
2015,04,25,12,08,9.80
2015,04,25,12,09,9.80
2015,04,25,12,10,9.70
2015,04,25,12,11,9.80
2015,04,25,12,12,9.80
2015,04,25,12,13,9.90
2015,04,25,12,14,9.90
2015,04,25,12,15,10.00
2015,04,25,12,16,10.10
2015,04,25,12,17,10.20
2015,04,25,12,18,10.30
2015,04,25,12,19,10.50
2015,04,25,12,20,10.60
2015,04,25,12,21,10.70
2015,04,25,12,22,10.70
2015,04,25,12,23,10.80
2015,04,25,12,24,10.80
2015,04,25,12,25,10.80
2015,04,25,12,26,10.80
2015,04,25,12,27,10.80
2015,04,25,12,28,10.60
2015,04,25,12,29,10.40
2015,04,25,12,30,10.30
2015,04,25,12,31,10.20
2015,04,25,12,32,10.10
2015,04,25,12,33,10.10
2015,04,25,12,34,10.00
2015,04,25,12,35,9.80
2015,04,25,12,36,9.80
2015,04,25,12,37,9.80
2015,04,25,12,38,9.80
2015,04,25,12,39,9.80
2015,04,25,12,40,9.80
2015,04,25,12,41,9.80
2015,04,25,12,42,9.80
2015,04,25,12,43,9.90
2015,04,25,12,44,10.00
2015,04,25,12,45,10.10
2015,04,25,12,46,10.20
2015,04,25,12,47,10.30
2015,04,25,12,48,10.50
2015,04,25,12,49,10.50
2015,04,25,12,50,10.40
2015,04,25,12,51,10.50
2015,04,25,12,52,10.60
2015,04,25,12,53,10.70
2015,04,25,12,54,10.80
2015,04,25,12,55,10.90
2015,04,25,12,56,11.00
2015,04,25,12,57,11.10
2015,04,25,12,58,11.20
2015,04,25,12,59,11.30
2015,04,25,13,00,11.30
2015,04,25,13,01,11.40
2015,04,25,13,02,11.40
2015,04,25,13,03,11.60
2015,04,25,13,04,11.80
2015,04,25,13,05,11.70
2015,04,25,13,06,11.60
2015,04,25,13,07,11.50
2015,04,25,13,08,11.40
2015,04,25,13,09,11.40
2015,04,25,13,10,11.50
2015,04,25,13,11,11.50
2015,04,25,13,12,11.50
2015,04,25,13,13,11.60
2015,04,25,13,14,11.70
2015,04,25,13,15,11.70
2015,04,25,13,16,11.60
2015,04,25,13,17,11.60
2015,04,25,13,18,11.60
2015,04,25,13,19,11.50
2015,04,25,13,20,11.50
2015,04,25,13,21,11.40
2015,04,25,13,22,11.40
2015,04,25,13,23,11.30
2015,04,25,13,24,11.30
2015,04,25,13,25,11.20
2015,04,25,13,26,11.20
2015,04,25,13,27,11.10
2015,04,25,13,28,11.00
2015,04,25,13,29,10.90
2015,04,25,13,30,10.80
2015,04,25,13,31,10.90
2015,04,25,13,32,11.00
2015,04,25,13,33,11.00
2015,04,25,13,34,11.10
2015,04,25,13,35,11.20
2015,04,25,13,36,11.30
2015,04,25,13,37,11.50
2015,04,25,13,38,11.60
2015,04,25,13,39,11.80
2015,04,25,13,40,11.80
2015,04,25,13,41,11.90
2015,04,25,13,42,11.90
2015,04,25,13,43,11.90
2015,04,25,13,44,12.00
2015,04,25,13,45,12.00
2015,04,25,13,46,11.90
2015,04,25,13,47,11.70
2015,04,25,13,48,11.50
2015,04,25,13,49,11.40
2015,04,25,13,50,11.30
2015,04,25,13,51,11.20
2015,04,25,13,52,11.20
2015,04,25,13,53,11.20
2015,04,25,13,54,11.30
2015,04,25,13,55,11.30
2015,04,25,13,56,11.30
2015,04,25,13,57,11.20
2015,04,25,13,58,11.10
2015,04,25,13,59,11.00
2015,04,25,14,00,11.00
2015,04,25,14,01,10.90
2015,04,25,14,02,11.00
2015,04,25,14,03,11.10
2015,04,25,14,04,11.10
2015,04,25,14,05,11.10
2015,04,25,14,06,11.10
2015,04,25,14,07,11.20
2015,04,25,14,08,11.20
2015,04,25,14,09,11.10
2015,04,25,14,10,11.10
2015,04,25,14,11,11.00
2015,04,25,14,12,10.90
2015,04,25,14,13,10.80
2015,04,25,14,14,10.80
2015,04,25,14,15,10.90
2015,04,25,14,16,10.90
2015,04,25,14,17,11.00
2015,04,25,14,18,11.10
2015,04,25,14,19,11.10
2015,04,25,14,20,11.20
2015,04,25,14,21,11.20
2015,04,25,14,22,11.20
2015,04,25,14,23,11.20
2015,04,25,14,24,11.20
2015,04,25,14,25,11.20
2015,04,25,14,26,11.20
2015,04,25,14,27,11.30
2015,04,25,14,28,11.30
2015,04,25,14,29,11.40
2015,04,25,14,30,11.50
2015,04,25,14,31,11.50
2015,04,25,14,32,11.60
2015,04,25,14,33,11.60
2015,04,25,14,34,11.70
2015,04,25,14,35,11.80
2015,04,25,14,36,11.90
2015,04,25,14,37,12.00
2015,04,25,14,38,12.00
2015,04,25,14,39,11.90
2015,04,25,14,40,11.80
2015,04,25,14,41,11.80
2015,04,25,14,42,11.70
2015,04,25,14,43,11.60
2015,04,25,14,44,11.50
2015,04,25,14,45,11.50
2015,04,25,14,46,11.40
2015,04,25,14,47,11.30
2015,04,25,14,48,11.30
2015,04,25,14,49,11.30
2015,04,25,14,50,11.30
2015,04,25,14,51,11.30
2015,04,25,14,52,11.20
2015,04,25,14,53,11.20
2015,04,25,14,54,11.10
2015,04,25,14,55,11.10
2015,04,25,14,56,11.10
2015,04,25,14,57,11.10
2015,04,25,14,58,11.10
2015,04,25,14,59,11.10
2015,04,25,15,00,11.10
2015,04,25,15,01,11.10
2015,04,25,15,02,11.00
2015,04,25,15,03,11.00
2015,04,25,15,04,11.00
2015,04,25,15,05,11.00
2015,04,25,15,06,11.00
2015,04,25,15,07,11.00
2015,04,25,15,08,10.90
2015,04,25,15,09,10.90
2015,04,25,15,10,10.90
2015,04,25,15,11,11.00
2015,04,25,15,12,11.00
2015,04,25,15,13,10.90
2015,04,25,15,14,10.90
2015,04,25,15,15,10.80
2015,04,25,15,16,10.80
2015,04,25,15,17,10.80
2015,04,25,15,18,10.80
2015,04,25,15,19,10.80
2015,04,25,15,20,10.70
2015,04,25,15,21,10.60
2015,04,25,15,22,10.50
2015,04,25,15,23,10.50
2015,04,25,15,24,10.50
2015,04,25,15,25,10.40
2015,04,25,15,26,10.40
2015,04,25,15,27,10.40
2015,04,25,15,28,10.50
2015,04,25,15,29,10.50
2015,04,25,15,30,10.50
2015,04,25,15,31,10.50
2015,04,25,15,32,10.60
2015,04,25,15,33,10.60
2015,04,25,15,34,10.70
2015,04,25,15,35,10.70
2015,04,25,15,36,10.70
2015,04,25,15,37,10.70
2015,04,25,15,38,10.70
2015,04,25,15,39,10.70
2015,04,25,15,40,10.70
2015,04,25,15,41,10.70
2015,04,25,15,42,10.70
2015,04,25,15,43,10.70
2015,04,25,15,44,10.70
2015,04,25,15,45,10.70
2015,04,25,15,46,10.70
2015,04,25,15,47,10.70
2015,04,25,15,48,10.70
2015,04,25,15,49,10.70
2015,04,25,15,50,10.80
2015,04,25,15,51,10.80
2015,04,25,15,52,10.80
2015,04,25,15,53,10.80
2015,04,25,15,54,10.80
2015,04,25,15,55,10.80
2015,04,25,15,56,10.80
2015,04,25,15,57,10.80
2015,04,25,15,58,10.80
2015,04,25,15,59,10.90
2015,04,25,16,00,10.90
2015,04,25,16,01,10.90
2015,04,25,16,02,10.90
2015,04,25,16,03,11.00
2015,04,25,16,04,11.00
2015,04,25,16,05,11.10
2015,04,25,16,06,11.10
2015,04,25,16,07,11.20
2015,04,25,16,08,11.20
2015,04,25,16,09,11.30
2015,04,25,16,10,11.30
2015,04,25,16,11,11.40
2015,04,25,16,12,11.50
2015,04,25,16,13,11.70
2015,04,25,16,14,11.80
2015,04,25,16,15,12.00
2015,04,25,16,16,12.00
2015,04,25,16,17,12.00
2015,04,25,16,18,12.10
2015,04,25,16,19,12.20
2015,04,25,16,20,12.20
2015,04,25,16,21,12.20
2015,04,25,16,22,12.20
2015,04,25,16,23,12.20
2015,04,25,16,24,12.20
2015,04,25,16,25,12.30
2015,04,25,16,26,12.30
2015,04,25,16,27,12.30
2015,04,25,16,28,12.30
2015,04,25,16,29,12.30
2015,04,25,16,30,12.30
2015,04,25,16,31,12.30
2015,04,25,16,32,12.20
2015,04,25,16,33,12.20
2015,04,25,16,34,12.10
2015,04,25,16,35,12.00
2015,04,25,16,36,12.00
2015,04,25,16,37,12.00
2015,04,25,16,38,12.00
2015,04,25,16,39,12.00
2015,04,25,16,40,12.10
2015,04,25,16,41,12.10
2015,04,25,16,42,12.20
2015,04,25,16,43,12.20
2015,04,25,16,44,12.20
2015,04,25,16,45,12.30
2015,04,25,16,46,12.20
2015,04,25,16,47,12.30
2015,04,25,16,48,12.30
2015,04,25,16,49,12.30
2015,04,25,16,50,12.30
2015,04,25,16,51,12.40
2015,04,25,16,52,12.40
2015,04,25,16,53,12.60
2015,04,25,16,54,12.70
2015,04,25,16,55,12.80
2015,04,25,16,56,12.80
2015,04,25,16,57,12.80
2015,04,25,16,58,12.80
2015,04,25,16,59,12.80
2015,04,25,17,00,12.80
2015,04,25,17,01,12.90
2015,04,25,17,02,12.90
2015,04,25,17,03,13.00
2015,04,25,17,04,13.00
2015,04,25,17,05,13.10
2015,04,25,17,06,13.10
2015,04,25,17,07,13.00
2015,04,25,17,08,13.00
2015,04,25,17,09,12.90
2015,04,25,17,10,12.90
2015,04,25,17,11,12.80
2015,04,25,17,12,12.80
2015,04,25,17,13,12.80
2015,04,25,17,14,12.80
2015,04,25,17,15,12.80
2015,04,25,17,16,12.70
2015,04,25,17,17,12.70
2015,04,25,17,18,12.70
2015,04,25,17,19,12.80
2015,04,25,17,20,12.80
2015,04,25,17,21,12.80
2015,04,25,17,22,12.90
2015,04,25,17,23,12.90
2015,04,25,17,24,12.90
2015,04,25,17,25,12.80
2015,04,25,17,26,12.80
2015,04,25,17,27,12.80
2015,04,25,17,28,12.80
2015,04,25,17,29,12.70
2015,04,25,17,30,12.70
2015,04,25,17,31,12.60
2015,04,25,17,32,12.60
2015,04,25,17,33,12.50
2015,04,25,17,34,12.60
2015,04,25,17,35,12.60
2015,04,25,17,36,12.60
2015,04,25,17,37,12.70
2015,04,25,17,38,12.70
2015,04,25,17,39,12.80
2015,04,25,17,40,12.80
2015,04,25,17,41,12.90
2015,04,25,17,42,13.00
2015,04,25,17,43,13.00
2015,04,25,17,44,13.00
2015,04,25,17,45,13.10
2015,04,25,17,46,13.10
2015,04,25,17,47,13.10
2015,04,25,17,48,13.00
2015,04,25,17,49,13.00
2015,04,25,17,50,13.00
2015,04,25,17,51,13.00
2015,04,25,17,52,13.00
2015,04,25,17,53,13.00
2015,04,25,17,54,13.10
2015,04,25,17,55,13.10